Theta_e
308 310 312 313 312 312 311 311 310 310 309 308 308 308 310 313 315 316 316 315 316 314 314 315 314 313 312 312 310 311 312 311 306 308 309 309 308 309 309 308 307 309 309 307 306 309 311 306 308 313 311 310 309 308
306 308 310 311 312 312 311 311 310 310 310 310 309 310 311 313 314 315 316 316 315 315 315 315 315 314 314 314 313 313 311 312 312 306 304 304 307 301 306 314 305 311 310 311 310 311 307 307 309 309 309 309 308 308
305 307 309 311 311 311 312 311 311 310 311 311 311 311 313 314 314 314 314 315 315 315 315 315 316 316 316 315 314 314 313 313 313 312 306 304 309 304 309 308 308 308 307 310 310 311 309 310 310 309 309 308 306 305
304 305 308 308 311 312 311 311 311 311 311 312 312 313 314 314 315 315 315 315 315 315 315 314 315 315 315 315 315 315 315 314 313 312 309 303 306 307 308 311 311 311 310 310 309 311 310 310 310 309 308 306 304 300
304 304 307 307 310 312 311 310 310 311 311 312 313 313 314 315 315 316 316 316 316 316 312 314 314 314 314 314 314 313 313 314 314 312 308 307 308 307 306 304 307 310 311 312 312 310 310 309 308 308 306 302 297 297
303 303 305 307 308 310 312 311 310 311 312 312 313 313 314 314 315 316 316 316 317 316 315 308 312 313 313 313 313 313 313 314 314 315 311 312 313 311 307 308 310 310 311 311 310 307 306 306 306 303 300 298 296 295
301 301 304 305 307 308 311 313 312 311 312 312 312 313 313 314 314 315 314 313 315 316 315 311 309 311 312 312 312 312 313 313 313 313 311 312 312 311 304 310 310 310 310 308 307 306 304 303 301 299 296 296 296 297
300 299 299 302 305 307 309 312 311 313 313 312 312 313 313 314 313 313 314 313 313 314 313 304 304 308 308 309 309 309 310 310 310 311 309 308 308 309 308 309 307 306 304 305 305 305 304 300 297 296 297 297 297 296
300 300 300 300 304 305 307 309 312 313 313 313 311 312 313 313 313 314 313 313 312 312 311 307 306 309 307 306 308 307 307 305 306 305 305 306 305 308 306 303 303 303 303 302 300 300 299 298 298 296 296 296 295 295
300 300 300 301 300 302 304 305 309 312 312 312 312 311 311 311 311 312 313 311 312 311 309 306 307 306 308 305 304 306 304 303 306 303 302 302 305 303 300 303 302 302 301 301 300 298 297 296 295 294 293 294 295 295
300 299 300 300 299 300 301 303 306 308 308 309 309 307 307 307 308 308 306 306 304 304 303 304 304 304 306 304 303 304 301 301 303 300 303 303 303 299 300 300 299 299 299 298 296 295 293 292 292 292 292 292 292 292
299 300 300 300 300 301 302 301 302 305 306 305 305 303 304 304 303 302 302 300 301 303 302 302 302 303 303 304 302 299 300 298 299 296 301 302 299 299 299 299 298 298 296 293 293 292 291 292 292 292 292 291 292 292
299 300 299 300 301 303 303 303 304 303 305 303 305 303 302 301 304 305 305 303 303 300 300 301 300 302 301 302 299 297 298 298 294 298 299 297 296 295 295 295 295 294 294 292 291 291 292 292 292 292 292 292 292 292
298 300 299 299 300 303 304 305 305 305 304 303 303 302 300 301 300 296 296 296 298 300 300 301 299 298 297 296 294 297 293 292 297 296 296 294 294 294 294 295 294 293 292 291 292 292 293 292 292 292 292 292 292 292
298 299 299 299 300 301 303 303 304 303 299 300 299 299 299 296 297 298 299 299 300 300 300 299 297 297 293 294 292 292 295 296 295 296 293 295 295 295 295 294 293 292 291 292 292 292 292 292 292 292 291 291 291 291
298 299 299 298 299 301 302 302 302 302 298 297 296 293 295 296 296 298 299 300 299 300 299 298 292 295 294 292 293 292 293 293 294 290 295 295 295 295 295 292 291 291 291 292 293 293 293 293 292 292 291 291 291 291
297 299 299 298 299 301 301 301 301 300 298 295 293 294 296 296 297 298 298 299 299 299 294 292 294 295 289 290 292 290 291 291 293 293 294 294 295 294 292 291 291 291 293 293 293 293 293 292 291 291 291 291 291 290
297 298 299 299 300 299 299 299 298 298 294 293 293 294 296 296 296 297 298 298 299 298 295 293 291 288 289 291 291 289 293 295 295 293 293 294 294 292 291 291 291 292 293 293 293 293 293 292 291 291 291 291 290 290
298 298 299 298 299 298 297 296 296 293 292 293 294 294 296 296 296 296 296 297 298 297 296 294 287 290 290 289 292 294 293 292 293 293 293 291 291 291 292 292 292 293 293 293 293 292 292 292 291 290 290 290 289 289
298 298 297 298 297 297 295 294 294 293 293 293 294 294 294 294 295 295 296 296 297 296 296 294 292 294 294 294 294 294 294 294 292 291 291 291 291 292 292 292 292 292 293 293 292 291 292 292 291 290 290 289 289 289
296 296 297 297 296 294 293 293 293 293 293 294 294 294 293 294 294 294 294 294 294 295 292 295 295 295 295 295 294 293 291 291 291 291 291 291 291 291 291 292 292 293 292 291 291 291 292 291 290 288 288 289 289 289
295 296 296 295 294 293 292 291 292 292 292 292 293 293 292 292 289 289 291 291 291 292 293 293 293 292 291 291 291 291 291 291 291 291 291 291 291 291 291 292 293 292 291 291 291 291 290 290 289 288 288 288 287 288
295 295 294 293 293 292 290 291 291 290 288 290 290 289 289 290 289 289 288 289 290 291 291 291 291 291 291 291 291 291 291 291 291 291 291 291 291 291 292 292 292 291 291 291 291 291 290 289 288 287 288 288 288 287
294 293 293 292 291 287 290 291 291 291 290 287 281 284 282 288 287 286 287 288 291 291 291 291 291 291 290 290 290 291 291 291 291 291 290 290 290 291 291 291 291 291 292 291 291 291 289 288 287 287 287 286 287 287
293 290 291 288 288 287 282 286 287 289 288 286 284 283 284 286 281 283 285 289 291 291 291 290 290 290 291 290 292 291 291 290 290 290 290 290 290 291 291 291 291 291 291 291 291 289 287 287 286 286 285 285 286 286
285 288 288 287 287 283 280 285 286 286 281 282 284 284 284 280 281 285 285 291 291 291 290 290 291 291 291 291 292 291 290 290 290 290 290 291 291 291 291 291 291 291 291 290 288 287 286 285 285 285 285 286 286 287
286 288 288 288 289 288 284 283 283 281 281 282 278 277 276 283 281 286 291 291 291 290 290 290 290 290 290 290 290 290 290 290 290 290 291 291 291 291 290 290 290 289 288 287 286 286 285 285 285 285 286 286 286 286
290 289 284 287 289 289 282 279 275 280 280 287 285 281 283 283 285 291 291 290 290 290 290 290 290 290 290 290 290 290 290 290 290 291 290 290 289 289 289 288 288 287 286 286 285 284 284 284 284 285 285 285 285 285
291 290 290 286 285 287 289 286 286 290 290 289 283 279 287 290 290 290 290 290 290 290 290 290 290 290 289 289 289 288 289 289 288 289 288 288 288 287 287 286 286 286 285 285 285 284 285 285 285 285 284 284 284 284
289 290 289 287 284 283 291 291 291 291 291 290 290 290 291 290 289 288 287 287 287 287 286 285 284 284 284 285 285 285 285 286 286 286 286 285 285 285 285 285 284 284 284 284 284 284 284 284 284 284 284 284 284 283
290 288 290 289 288 291 291 291 291 291 291 290 290 289 289 288 285 284 283 282 281 281 281 282 282 281 281 282 282 282 282 282 282 282 282 282 282 282 282 282 283 283 283 283 283 282 282 282 282 282 282 282 282 282
289 289 289 282 289 290 289 289 290 289 289 289 287 287 287 287 283 279 277 278 278 279 279 278 279 279 278 278 278 279 279 279 280 280 280 280 280 280 281 281 281 281 281 281 281 280 280 280 280 280 280 280 280 279
284 284 284 285 287 289 287 287 286 285 285 286 285 285 283 280 275 274 274 274 275 275 276 276 276 276 276 277 277 278 278 278 278 278 278 278 279 279 279 279 279 279 279 279 279 279 279 279 279 279 278 278 278 277
Wind_Speed
7 18 23 19 21 19 17 17 17 16 14 13 12 11 10 9 8 8 7 6 5 4 11 9 8 8 8 7 4 9 5 0 4 3 3 3 2 3 2 2 3 3 3 4 2 4 7 3 3 2 5 18 14 16
3 11 18 25 24 22 19 17 18 17 15 13 13 12 11 10 9 9 8 7 7 4 4 9 8 6 6 6 8 14 3 5 7 4 2 3 3 2 3 3 0 4 6 2 7 6 6 3 5 11 7 8 10 8
3 5 10 18 25 27 25 21 19 18 16 14 14 13 12 10 10 10 9 8 7 6 4 7 7 8 7 7 7 6 5 6 6 5 9 2 4 4 4 6 2 3 5 4 1 6 13 13 13 8 18 14 10 9
6 5 6 13 21 30 28 23 21 20 18 16 15 14 13 11 10 9 9 9 9 5 4 4 8 7 8 9 8 8 7 7 6 6 4 3 2 10 4 4 6 9 3 4 5 19 12 9 12 19 7 6 6 7
7 8 6 14 12 30 29 31 25 21 21 18 17 16 15 13 11 10 9 10 11 8 4 4 5 8 9 8 8 10 10 10 9 6 4 3 5 4 3 0 3 9 7 3 6 9 5 6 10 7 3 4 5 8
8 9 6 2 13 15 34 30 29 26 24 21 19 17 16 15 12 9 5 11 11 10 3 1 4 9 12 15 14 14 15 14 11 8 5 6 8 5 2 3 9 14 15 16 8 7 8 7 1 1 1 4 6 8
6 7 7 7 3 15 20 37 32 30 27 24 21 18 16 15 14 10 3 3 13 15 4 2 3 4 12 13 12 13 15 11 9 6 8 7 10 8 2 5 4 8 12 1 6 5 4 2 2 1 4 7 12 17
4 6 9 8 10 4 18 29 35 33 28 27 23 18 16 14 13 15 15 5 9 9 6 3 3 1 7 5 6 6 6 7 6 4 3 4 4 8 4 5 0 4 4 2 1 2 6 8 2 6 11 18 23 24
4 5 5 7 6 8 4 12 35 35 34 26 23 20 18 20 15 19 18 19 14 9 5 6 5 3 6 5 3 3 4 2 2 2 2 3 2 4 2 4 6 3 4 13 12 8 4 5 11 15 19 21 22 26
4 5 4 4 4 3 3 6 12 32 30 28 24 16 9 12 16 16 13 11 12 8 8 4 6 2 6 6 2 3 1 2 2 1 1 2 2 4 2 1 8 13 14 9 3 1 8 12 15 19 22 24 25 28
6 5 5 4 4 6 3 9 10 16 27 26 9 5 15 22 11 7 5 2 3 2 4 4 5 3 7 3 3 2 2 1 2 0 1 1 2 2 7 14 15 9 7 4 3 6 11 16 20 24 27 29 31 33
10 6 5 2 4 4 13 8 9 18 5 5 9 17 8 5 4 4 3 3 2 3 5 5 4 4 4 3 3 2 2 1 2 1 2 2 2 6 11 9 6 7 4 5 10 15 17 19 21 24 27 28 29 30
14 10 5 0 0 5 13 19 18 12 13 12 5 5 3 1 3 5 5 1 3 7 6 6 4 4 3 3 5 2 2 2 0 1 3 2 7 9 9 8 7 2 6 13 16 17 18 19 21 22 25 26 29 32
17 15 9 9 3 8 15 14 17 14 6 2 3 3 2 1 2 3 3 4 4 6 13 12 6 2 2 3 2 3 1 1 1 2 5 2 11 9 6 5 1 8 15 17 19 18 18 22 24 25 26 29 32 32
19 17 14 15 8 9 11 16 16 12 2 4 3 3 1 2 4 6 11 9 8 13 17 9 6 3 2 3 2 3 2 3 4 4 2 12 9 6 4 3 12 18 20 20 19 19 22 25 26 28 29 31 30 30
21 20 20 17 14 14 14 10 10 5 3 3 4 4 6 3 3 5 8 10 9 14 10 5 3 2 1 3 3 5 5 5 3 4 7 6 4 5 5 14 19 22 22 21 19 21 25 24 25 29 32 31 31 29
22 17 24 21 17 14 12 7 3 3 3 3 3 6 5 3 7 7 6 8 11 11 2 4 3 3 5 2 3 4 4 3 5 5 3 6 7 9 18 23 25 23 21 19 22 25 24 23 26 30 32 31 30 32
18 22 26 24 22 18 11 3 3 2 3 3 3 7 7 5 9 9 6 9 9 5 6 2 6 2 4 4 3 4 9 3 9 5 9 11 15 23 23 23 21 19 20 23 24 24 24 24 29 32 32 27 30 33
22 29 27 26 23 13 5 4 2 3 3 3 4 7 5 5 7 7 13 12 9 5 5 5 3 3 3 6 6 6 5 5 11 18 21 20 20 20 17 17 18 21 22 23 23 24 24 26 29 31 27 24 28 29
30 30 28 24 19 5 4 4 4 4 3 3 5 7 5 3 5 5 9 12 11 6 3 3 5 5 6 6 6 11 15 18 20 22 25 24 19 18 18 18 21 22 22 21 21 23 26 30 31 33 28 21 24 28
32 27 25 19 13 5 4 4 3 3 5 3 7 6 2 4 4 5 7 9 7 4 4 10 14 18 19 20 20 21 19 15 16 17 23 29 28 26 25 22 20 18 18 19 23 25 26 29 31 30 25 21 23 26
25 22 21 14 4 3 4 4 5 7 4 6 6 4 2 1 2 3 4 5 5 11 17 22 24 22 20 19 14 15 16 18 21 23 23 23 25 26 24 18 18 16 16 18 21 25 28 28 27 23 21 20 24 26
25 19 9 4 3 3 4 7 2 3 3 4 4 2 1 1 2 6 3 7 8 15 15 16 15 13 15 15 15 16 15 13 12 12 14 16 19 21 22 21 16 17 22 21 22 26 26 26 22 22 22 22 23 25
20 6 3 3 3 3 5 2 3 3 3 2 2 0 2 2 4 3 3 5 9 15 13 10 10 10 11 12 12 8 2 7 14 18 20 22 23 22 20 20 20 24 24 23 24 25 24 22 21 21 23 27 25 24
6 3 2 4 3 4 3 2 1 3 2 2 2 2 2 4 1 2 3 5 12 7 1 1 4 7 12 15 11 9 11 19 22 26 29 27 28 28 28 28 28 29 22 23 25 24 22 21 22 24 23 23 23 24
5 2 2 5 4 4 5 4 4 3 2 3 5 1 2 3 1 5 4 7 7 5 2 5 10 13 14 15 15 18 23 25 26 29 32 27 26 27 28 27 25 22 24 24 20 18 20 22 22 21 21 22 22 23
4 3 3 4 6 7 5 4 5 3 4 5 3 3 3 2 5 5 6 8 4 1 11 16 19 20 21 21 23 27 29 30 28 28 29 27 25 21 20 21 22 20 17 15 15 19 22 19 18 18 19 19 19 21
3 7 6 8 4 4 5 3 4 5 4 6 9 4 6 8 5 2 2 6 11 19 23 26 27 27 27 28 28 30 31 29 28 25 23 19 18 17 17 17 17 15 14 18 20 18 15 15 15 17 17 18 20 21
1 4 7 5 3 4 7 9 7 7 6 12 7 4 6 8 12 14 20 24 26 29 29 29 29 26 25 24 23 23 23 21 19 21 21 19 18 13 11 11 14 17 17 17 14 12 12 13 14 14 14 16 18 19
3 8 5 6 5 5 7 12 8 10 11 13 15 15 17 19 18 19 19 21 22 21 20 20 22 23 22 22 20 16 14 13 12 12 11 10 9 10 12 14 14 12 12 13 14 14 13 13 13 14 16 18 19 19
2 9 3 5 5 6 11 14 16 18 19 19 21 23 27 18 13 9 11 13 15 18 20 19 16 15 15 14 12 9 7 7 8 9 9 9 10 11 11 11 11 12 13 14 15 16 16 16 16 17 17 17 17 15
5 8 4 3 4 8 9 8 13 17 19 18 21 19 12 7 3 3 11 13 13 13 14 14 12 11 10 7 5 5 7 9 9 10 9 9 8 9 10 11 12 14 15 16 16 15 14 14 14 14 13 13 12 11
3 5 5 5 4 3 2 2 3 4 6 6 3 1 1 2 4 6 7 12 14 15 13 10 8 8 8 8 8 9 10 11 12 12 12 12 12 13 13 14 14 14 13 13 12 11 11 11 11 11 11 11 10 10
Wind_Direction
199 210 216 216 211 207 206 213 213 210 211 209 205 206 209 214 210 202 199 191 176 126 166 175 167 153 154 169 140 155 110 138 75 87 143 192 193 212 187 229 209 237 212 216 142 234 278 253 262 174 335 309 305 333
263 210 223 219 214 213 212 212 216 216 211 210 208 206 206 209 216 215 208 208 194 177 165 184 185 180 176 157 160 168 158 160 159 98 167 124 205 188 188 241 145 274 202 209 182 229 280 270 292 328 338 333 358 337
291 261 218 222 221 215 214 214 216 218 215 209 209 206 203 205 207 211 210 205 191 175 152 173 187 197 194 187 185 161 189 174 175 172 155 144 213 140 189 227 224 262 218 225 269 250 265 297 315 339 326 319 333 333
331 317 238 228 217 211 215 214 214 214 215 210 208 207 203 200 200 201 200 198 192 149 158 187 195 195 208 211 210 208 206 186 193 190 152 146 185 192 208 236 217 256 197 222 254 288 284 299 319 305 291 347 359 2
320 314 271 236 226 212 215 214 215 215 213 212 210 209 205 204 206 203 201 198 195 196 150 148 170 198 206 218 235 220 226 226 209 168 155 206 220 180 213 284 223 205 224 225 268 306 298 345 327 279 332 26 21 340
330 330 301 272 244 224 205 208 211 214 215 212 212 213 212 211 209 211 227 232 217 213 179 104 227 217 225 232 221 225 243 238 218 184 191 213 223 215 191 224 245 250 260 269 280 342 326 289 258 67 69 330 339 342
333 339 283 292 294 237 218 210 212 213 216 215 214 214 219 217 212 193 207 212 207 213 196 258 286 200 212 216 215 222 224 217 218 214 204 221 224 202 206 262 230 270 291 232 301 273 137 200 183 4 356 340 324 322
334 345 353 322 246 253 224 210 208 206 210 216 217 215 222 223 221 223 224 238 195 177 179 140 258 254 191 190 190 186 186 191 203 219 208 198 187 202 240 222 332 301 302 268 357 144 126 131 97 352 333 321 315 313
287 302 341 356 242 236 155 200 202 206 207 210 220 214 211 211 208 215 222 220 209 206 193 175 154 213 185 200 157 141 166 116 212 210 205 187 194 215 235 303 321 310 164 134 117 107 85 343 326 320 319 317 313 313
256 276 307 323 317 345 184 131 182 204 197 200 200 184 187 174 185 192 192 200 206 212 211 172 145 153 184 171 136 136 134 159 199 208 261 209 250 164 357 135 96 101 108 111 124 306 330 323 321 321 319 317 314 313
233 253 289 333 316 227 228 146 133 168 174 164 158 125 146 145 141 146 136 123 177 158 177 159 188 140 159 127 155 172 153 121 206 239 255 232 252 156 117 127 128 121 130 117 56 346 331 324 322 320 320 318 316 314
209 224 266 319 1 201 185 175 123 160 115 121 128 124 127 119 104 126 149 163 188 165 145 135 107 92 120 154 121 152 135 101 225 294 234 241 219 151 146 148 150 146 107 9 340 329 322 318 316 313 313 315 316 316
205 203 225 165 78 161 163 167 179 168 167 131 141 109 134 88 125 173 171 107 136 161 157 148 107 141 135 153 88 98 134 197 113 201 238 237 150 149 153 155 150 120 336 327 324 320 313 312 313 314 316 319 319 318
200 198 190 204 217 177 169 154 149 149 158 95 97 99 80 197 188 170 159 144 133 141 154 143 106 113 117 84 107 119 88 113 184 239 233 208 169 162 161 154 315 321 329 323 316 313 311 317 315 317 318 320 321 321
198 197 186 195 185 171 160 164 174 158 140 118 123 117 142 121 96 118 118 116 124 150 154 124 99 124 58 98 53 107 126 234 220 231 225 175 176 182 195 292 316 322 323 318 314 312 314 317 314 315 321 324 324 322
199 193 189 183 177 173 164 167 174 166 55 79 88 103 141 115 115 125 132 130 147 152 126 103 107 110 121 122 138 205 164 222 245 222 162 176 213 222 254 306 314 316 311 305 305 310 312 312 313 315 319 322 324 323
182 194 182 179 173 181 185 172 117 82 76 64 81 124 143 116 159 150 148 160 164 151 150 136 140 188 113 102 221 191 206 213 186 130 212 235 216 290 309 307 309 307 302 302 306 308 307 311 316 318 317 318 320 322
203 188 178 173 172 164 160 117 80 83 70 107 134 163 170 137 153 171 165 168 164 168 154 150 126 134 189 192 231 221 217 199 190 298 306 278 278 298 299 299 299 296 298 302 305 305 307 309 315 317 316 313 313 321
192 171 175 168 167 141 126 134 125 103 91 112 121 146 149 141 158 184 194 187 191 183 158 159 117 202 223 215 209 172 189 247 285 303 302 300 299 301 297 293 293 295 298 300 302 304 306 309 316 319 315 306 313 322
168 167 162 157 161 131 104 92 116 105 117 138 126 143 128 134 166 163 169 187 192 175 188 206 216 213 215 233 253 292 298 305 306 304 301 304 308 303 294 294 295 296 297 299 301 303 307 311 315 318 319 312 312 317
160 150 159 166 137 94 94 114 104 105 118 118 139 138 139 160 167 178 192 199 198 226 237 237 251 261 271 277 286 294 298 296 292 293 296 300 304 300 297 298 294 293 292 299 304 307 308 310 310 314 316 307 311 313
143 151 139 127 84 85 86 103 117 122 127 135 146 157 141 160 204 203 186 192 234 231 237 256 272 284 291 294 297 293 296 294 291 292 297 299 299 304 304 299 294 291 293 301 304 307 309 309 310 313 318 311 313 315
147 142 101 88 103 78 85 127 102 119 118 151 146 102 130 171 166 165 229 229 248 254 260 265 277 289 292 295 292 293 295 295 307 319 321 318 312 307 300 299 289 286 295 300 305 307 309 311 312 310 309 306 307 310
137 94 93 91 92 110 140 162 119 110 110 83 81 307 271 177 166 200 246 242 251 274 284 301 309 303 293 293 288 285 122 342 334 329 329 324 320 317 314 301 287 287 289 296 304 309 307 308 310 310 310 312 308 305
106 58 113 57 101 103 80 80 96 170 152 129 122 270 232 180 134 234 236 261 273 284 214 248 335 332 310 299 276 223 309 323 322 318 316 316 309 300 293 288 286 289 281 291 301 306 305 306 311 311 316 323 321 312
82 107 136 158 157 142 170 144 171 154 127 167 225 248 160 103 81 250 227 235 235 214 223 327 323 315 304 298 270 291 311 312 311 307 307 307 302 300 300 300 297 285 288 297 308 307 300 306 311 315 317 319 321 321
115 161 154 150 145 139 104 107 141 137 163 196 202 140 96 164 242 253 255 247 219 294 324 321 316 308 300 295 292 292 294 298 299 299 300 298 295 296 298 297 295 294 294 302 304 300 303 307 311 317 320 323 328 331
116 157 155 171 132 151 128 140 154 202 216 178 149 175 185 196 229 191 256 233 271 298 306 308 306 299 291 287 285 285 288 292 292 288 288 294 296 291 288 290 289 283 286 297 304 305 304 301 306 312 317 322 328 333
139 172 155 143 153 196 218 195 214 214 204 185 179 216 233 260 281 290 291 292 295 297 297 296 294 290 288 289 293 294 296 295 293 287 286 286 292 292 285 287 289 293 295 300 305 303 298 299 304 310 316 319 325 328
227 195 194 177 177 216 226 206 223 239 240 244 260 274 282 284 290 288 291 294 298 304 307 308 308 307 308 309 310 308 303 299 295 292 292 290 281 282 289 296 296 297 304 310 314 315 312 306 301 300 304 307 314 318
204 186 224 210 240 245 251 254 258 266 271 279 287 284 283 284 259 287 302 321 327 323 320 318 316 312 311 307 309 312 314 319 322 320 315 307 303 302 301 303 309 316 321 322 320 318 316 315 313 313 314 316 320 323
201 203 212 215 257 267 277 277 278 279 278 276 279 283 278 239 172 313 344 350 349 352 355 353 357 4 8 7 358 349 339 332 328 330 328 324 319 319 318 321 325 325 322 322 323 323 323 323 323 324 326 328 331 333
240 239 246 277 282 255 257 263 267 283 260 257 262 59 111 103 103 35 16 4 5 6 6 10 20 15 355 345 343 337 332 333 332 328 325 322 321 323 325 327 326 327 329 332 334 334 333 333 333 332 332 332 332 331